"Pseudo-MPEC" for LA0CeOu

Created 2026 Aug 8 2:35:04 UT using Find_Orb

Click here for an explanation of pseudo-MPECs

 
 Astrometry: 
     LA0CeOu* C2026 07 25.68600921 08 10.284-04 20 26.59   ~7SG5 16.8 GVNEOCPP07
     LA0CeOu  C2026 07 25.75497221 05 07.222+03 12 33.80   ~7SG5x17.0 GVNEOCPP07
     LA0CeOu  C2026 07 25.79989021 02 55.135+08 40 43.28   ~7SG5x17.0 GVNEOCPP07
     LA0CeOu  C2026 07 25.84386521 00 37.366+14 23 10.21   ~7SG5x17.4 GVNEOCPP07
     LA0CeOu KC2026 07 28.85795109 51 49.171+69 55 24.56   ~7SLK 19.7 GWNEOCP151
     LA0CeOu KC2026 07 28.85934009 51 48.874+69 55 11.82   ~7SLK 19.8 GWNEOCP151
     LA0CeOu KC2026 07 28.86072909 51 48.326+69 54 53.64   ~7SLK 19.2 GWNEOCP151
     LA0CeOu KC2026 07 28.86211809 51 47.796+69 54 39.35   ~7SLK 19.3 GWNEOCP151
     LA0CeOu KC2026 07 28.86349509 51 47.477+69 54 24.91   ~7SLK 19.6 GWNEOCP151
     LA0CeOu KC2026 07 28.86488409 51 47.114+69 54 12.92   ~7SLK 20.0 GWNEOCP151

Station data:
(151) Eschenberg Observatory, Winterthur  (N47.476028 E8.744000)  Switzerland.
     Observer D. Luongo. 0.6-m f/3.8 Astrograph + CCD.
(P07) Space Surveillance Telescope, HEH Station  (S21.895685 E114.089870)
   Australia/WA.  Observers M. Blythe, R. Brungard, P. Festler, T. McVey, J.
   Paige, G. Spitz, L. Banks. Measurers M. Cornell, M. Kotson, R. Rios, J.
   Ruprecht, J. Vaillancourt, J. Varey, H. Viggh, D. Woods. 3.5-m f/1.0
   reflector + CCD.

Orbital elements:  LA0CeOu
   Perihelion 2026 Sep 9.996719 +/- 10.5 TT = 23:55:16.4 (JD 2461293.496719)
Epoch 2026 Jul 28.0 TT = JDT 2461249.5   Earth MOID: 0.0046   Ma: 0.0783
M 342.894536870 +/- 20              (J2000 ecliptic)             AutoNEOCP
n   0.388789520 +/- 0.316           Peri.   68.471776 +/- 6
a   1.859201019 +/- 0.607           Node   302.330223 +/- 0.027
e   0.57757885 +/- 0.236            Incl.   25.496507 +/- 7
P   2.535/925.933d         H 22.67  G  0.15   U 12.0
q 0.785365828 +/- 0.0387    Q 2.933036210 +/- 1.25
7 of 10 observations 2026 July 25-28; mean residual 94".24
Residuals in arcseconds: 
260725 P07  .69-  1.9+    260728 151 13.4+  143+    260728 151 13.4+  143+    
260725 P07( 202-  984+)   260728 151 14.1+  145+    260728 151 13.7+  146+    
260725 P07( 351- 1737+)   260728 151 13.5+  142+    
260725 P07( 506- 2525+)   260728 151 12.9+  142+    

Ephemerides (geocentric):
Date (UTC) HH   RA             Dec           delta  r     elong  mag " sig PA
---- --------  ------------   ------------  ------ ------ -----  --- --------
2026 08 08 03  09 38 21.360   +62 55 36.30  .15223 .91680  46.9 23?? 1490   9
2026 08 08 04  09 38 20.355   +62 54 58.36  .15271 .91650  46.9 23?? 1491   9
2026 08 08 05  09 38 19.354   +62 54 20.48  .15320 .91621  46.9 23?? 1493   9
2026 08 08 06  09 38 18.356   +62 53 42.67  .15368 .91591  46.9 23?? 1494   9
2026 08 08 07  09 38 17.362   +62 53 04.92  .15416 .91562  46.9 23?? 1495   9
2026 08 08 08  09 38 16.371   +62 52 27.23  .15465 .91532  46.9 23?? 1497   9
2026 08 08 09  09 38 15.384   +62 51 49.61  .15513 .91503  46.9 23?? 1498   9
2026 08 08 10  09 38 14.400   +62 51 12.05  .15562 .91473  46.9 23?? 1500   9
2026 08 08 11  09 38 13.420   +62 50 34.55  .15610 .91444  46.9 23?? 1501   9
2026 08 08 12  09 38 12.443   +62 49 57.11  .15658 .91415  46.9 23?? 1503   9
2026 08 08 13  09 38 11.470   +62 49 19.73  .15707 .91386  46.9 23?? 1504   9
2026 08 08 14  09 38 10.500   +62 48 42.40  .15755 .91356  46.9 23?? 1505   9
2026 08 08 15  09 38 09.533   +62 48 05.13  .15803 .91327  46.9 23?? 1507   9
2026 08 08 16  09 38 08.570   +62 47 27.91  .15852 .91298  46.9 23?? 1508   9
2026 08 08 17  09 38 07.610   +62 46 50.75  .15900 .91269  46.9 23?? 1510   9
2026 08 08 18  09 38 06.653   +62 46 13.64  .15949 .91239  46.9 23?? 1511   9
2026 08 08 19  09 38 05.700   +62 45 36.58  .15997 .91210  46.9 23?? 1513   9
2026 08 08 20  09 38 04.749   +62 44 59.57  .16045 .91181  46.9 23?? 1514   9
2026 08 08 21  09 38 03.803   +62 44 22.61  .16094 .91152  46.9 23?? 1515   9
2026 08 08 22  09 38 02.859   +62 43 45.69  .16142 .91123  46.9 23?? 1517   9
2026 08 08 23  09 38 01.918   +62 43 08.83  .16190 .91094  46.9 23?? 1518   9
2026 08 09 00  09 38 00.981   +62 42 32.01  .16239 .91065  46.9 23?? 1520   9
2026 08 09 01  09 38 00.047   +62 41 55.24  .16287 .91036  46.9 23?? 1521   9
2026 08 09 02  09 37 59.116   +62 41 18.51  .16336 .91007  46.9 23?? 1523   9
2026 08 09 03  09 37 58.188   +62 40 41.82  .16384 .90978  46.9 23?? 1524   9
2026 08 09 04  09 37 57.264   +62 40 05.18  .16433 .90949  46.9 23?? 1525   9
2026 08 09 05  09 37 56.342   +62 39 28.58  .16481 .90920  46.9 23?? 1527   9
2026 08 09 06  09 37 55.424   +62 38 52.02  .16529 .90891  46.9 23?? 1528   9
2026 08 09 07  09 37 54.508   +62 38 15.49  .16578 .90862  46.9 23?? 1530   9
2026 08 09 08  09 37 53.596   +62 37 39.01  .16626 .90833  46.9 23?? 1531   9
2026 08 09 09  09 37 52.687   +62 37 02.57  .16675 .90804  46.9 23?? 1533   9
2026 08 09 10  09 37 51.780   +62 36 26.16  .16723 .90775  46.9 23?? 1534   9
2026 08 09 11  09 37 50.877   +62 35 49.78  .16771 .90746  46.9 23?? 1535   9
2026 08 09 12  09 37 49.977   +62 35 13.45  .16820 .90718  46.9 23?? 1537   9
2026 08 09 13  09 37 49.080   +62 34 37.14  .16868 .90689  46.9 23?? 1538   9
2026 08 09 14  09 37 48.185   +62 34 00.87  .16917 .90660  46.9 23?? 1540   9
2026 08 09 15  09 37 47.294   +62 33 24.64  .16965 .90631  46.9 23?? 1541   9
2026 08 09 16  09 37 46.405   +62 32 48.43  .17014 .90603  46.9 23?? 1543   9
2026 08 09 17  09 37 45.520   +62 32 12.26  .17062 .90574  46.9 23?? 1544   9
2026 08 09 18  09 37 44.637   +62 31 36.11  .17110 .90545  46.9 23?? 1545   9
2026 08 09 19  09 37 43.757   +62 31 00.00  .17159 .90517  46.9 23?? 1547   9
2026 08 09 20  09 37 42.881   +62 30 23.91  .17207 .90488  46.9 23?? 1548   9
2026 08 09 21  09 37 42.007   +62 29 47.85  .17256 .90460  46.9 23?? 1550   9
2026 08 09 22  09 37 41.136   +62 29 11.82  .17304 .90431  46.9 23?? 1551   9
2026 08 09 23  09 37 40.267   +62 28 35.81  .17353 .90403  46.9 23?? 1553   9
2026 08 10 00  09 37 39.402   +62 27 59.83  .17401 .90374  46.9 23?? 1554   9
2026 08 10 01  09 37 38.539   +62 27 23.88  .17450 .90346  46.9 23?? 1556   9
2026 08 10 02  09 37 37.679   +62 26 47.94  .17498 .90317  46.9 23?? 1557   9